This demonstration page uses our WeatherBlox Daily Observations layout. Learn more.

Left ArrowRight Arrow

Hourly Observations for October 5, 2015

Temp ( °F °C ) Dew Point ( °F °C ) Humidity (%) Winds ( mph kmh ) Pressure ( in mb ) Visibility ( mi km ) Precip ( " mm )
12:51 am 00:51 Cloudy 68 20 57 13.9 68 68 VRB 5 7 29.79 1009 10 16 0.00 0.00
1:51 am 01:51 Partly Cloudy 66 18.9 57 13.9 73 73 SE 3 6 29.79 1009 10 16 0.00 0.03
2:51 am 02:51 Partly Cloudy 65 18.3 56 13.3 73 73 SSE 6 9 29.80 1009 10 16 0.00 0.00
3:51 am 03:51 Cloudy 65 18.3 57 13.9 76 76 S 6 9 29.81 1009 10 16 0.00 0.00
4:51 am 04:51 Mostly Cloudy 64 17.8 57 13.9 78 78 SE 6 9 29.84 1011 10 16 0.00 0.00
5:51 am 05:51 Mostly Cloudy 63 17.2 59 15 87 87 ESE 8 13 29.86 1011 10 16 0.03 0.76
6:51 am 06:51 Sunny 63 17.2 58 14.4 84 84 ESE 7 11 29.85 1011 10 16 0.00 0.00
7:51 am 07:51 Mostly Cloudy 66 18.9 58 14.4 75 75 S 6 9 29.88 1012 10 16 0.00 0.00
8:51 am 08:51 Sunny 70 21.1 59 15 68 68 VRB 3 6 29.88 1012 10 16 0.00 0.00
9:51 am 09:51 Cloudy 73 22.8 56 13.3 55 55 ESE 15 24 29.88 1012 10 16 0.00 0.00
10:51 am 10:51 Mostly Sunny 77 25 55 12.8 47 47 SSE 10 17 29.85 1011 10 16 0.00 0.00
11:10 am 11:10 Mostly Cloudy with Nearby Thunderstorms 76 24.4 56 13.3 50 50 S 7 11 29.83 1010 10 16 0.00 0.00
11:19 am 11:19 Mostly Cloudy with Heavy Rain 69 20.6 60 15.6 73 73 SSE 15 24 29.85 1011 3 4 0.05 1.27
11:51 am 11:51 Partly Cloudy with Nearby Thunderstorms 73 22.8 62 16.7 69 69 ENE 7 11 29.84 1011 10 16 0.11 2.79
12:24 pm 12:24 Sunny 74 23.3 62 16.7 67 67 E 16 26 29.80 1009 10 16 0.00 0.00
12:51 pm 12:51 Mostly Sunny 74 23.3 61 16.1 64 64 E 16 26 29.81 1010 10 16 0.00 0.00
1:51 pm 13:51 Sunny 77 25 59 15 54 54 E 16 26 29.80 1009 10 16 0.00 0.00
2:51 pm 14:51 Partly Cloudy 79 26.1 58 14.4 49 49 E 13 20 29.78 1008 10 16 0.00 0.00
3:51 pm 15:51 Mostly Cloudy 78 25.6 56 13.3 47 47 SE 3 6 29.79 1009 10 16 0.00 0.00
4:51 pm 16:51 Cloudy 79 26.1 48 8.9 34 34 SSW 6 9 29.80 1009 10 16 0.00 0.00
5:51 pm 17:51 Cloudy with Nearby Thunderstorms 75 23.9 49 9.4 40 40 WSW 7 11 29.84 1010 10 16 0.00 0.03
6:00 pm 18:00 Cloudy 75 23.9 50 10 41 41 W 7 11 29.80 1009 10 16 0.00 0.00
6:51 pm 18:51 Mostly Cloudy 73 22.8 53 11.7 50 50 Calm 29.86 1011 10 16 0.00 0.00
7:51 pm 19:51 Mostly Clear 69 20.6 56 13.3 63 63 Calm 29.90 1013 10 16 0.00 0.00
8:51 pm 20:51 Clear 68 20 56 13.3 65 65 W 5 7 29.93 1013 10 16 0.00 0.00
9:51 pm 21:51 undefined 65 18.3 57 13.9 76 76 Calm 29.94 1014 10 16 0.00 0.00
10:51 pm 22:51 Mostly Clear 64 17.8 57 13.9 78 78 E 3 6 29.94 1014 10 16 0.00 0.00
11:51 pm 23:51 Mostly Clear 63 17.2 56 13.3 78 78 Calm 29.96 1014 10 16 0.00 0.00

Powered by AerisWeather